Findlay, OH

8:10 AM EST on December 13, 2019 (GMT -0500)
Findlay

Weather History for KFDY - October, 2019

Change the Weather History Date:

Thursday, October 17, 2019

  Actual Average Record
Temperature  
Mean Temperature 48 °F -  
Max Temperature 57 °F 60 °F 84 °F (2016)
Min Temperature 42 °F 42 °F 24 °F (1977)
Degree Days  
Heating Degree Days 16    
Moisture  
Dew Point 38 °F    
Average Humidity 69    
Maximum Humidity 82    
Minimum Humidity 53    
Precipitation  
Precipitation 0.00 in - - ()
Sea Level Pressure  
Sea Level Pressure 29.92 in    
Wind  
Wind Speed 13 mph (WNW)    
Max Wind Speed 17 mph    
Max Gust Speed 28 mph    
Visibility 10 miles    
Events      
Averages and records for this station are not official NWS values.
T = Trace of Precipitation, MM = Missing Value Source: NWS Daily Summary

Daily Weather History Graph

Daily Weather History Graph

Search for Another Location

Airport or City:

Astronomy

Oct. 17, 2019 Rise Set
Actual Time 7:48 AM EDT 6:51 PM EDT
Civil Twilight 7:20 AM EDT 7:19 PM EDT
Nautical Twilight 6:48 AM EDT 7:50 PM EDT
Astronomical Twilight 6:16 AM EDT 8:22 PM EDT
Moon 9:20 PM EDT (10/17) 11:20 AM EDT (10/17)
Length of Visible Light 11h 58m
Length of Day
11h 03m
Waning Gibbous, 87% of the Moon is Illuminated
Oct 17
Waning Gibbous
Oct 21
Last Quarter
Oct 27
New
Nov 4
First Quarter
Nov 12
Full

Hourly Weather History & Observations

Time (EDT) Temp. Windchill Dew Point Humidity Pressure Visibility Wind Dir Wind Speed Gust Speed Precip Events Conditions
12:53 AM 45.0 °F 39.3 °F 39.0 °F 80% 29.86 in 10.0 mi West 11.5 mph - N/A   Partly Cloudy
1:53 AM 44.1 °F 37.4 °F 37.9 °F 79% 29.86 in 10.0 mi WNW 13.8 mph - N/A   Clear
2:53 AM 44.1 °F 37.7 °F 37.9 °F 79% 29.86 in 10.0 mi West 12.7 mph - N/A   Clear
3:53 AM 44.1 °F 37.7 °F 37.0 °F 76% 29.87 in 10.0 mi West 12.7 mph - N/A   Clear
4:53 AM 43.0 °F 37.2 °F 37.0 °F 80% 29.87 in 10.0 mi West 10.4 mph - N/A   Clear
5:53 AM 43.0 °F 36.4 °F 37.0 °F 80% 29.89 in 10.0 mi WNW 12.7 mph - N/A   Clear
6:53 AM 42.1 °F 35.7 °F 37.0 °F 82% 29.90 in 10.0 mi WNW 11.5 mph - N/A   Clear
7:53 AM 42.1 °F 36.1 °F 37.0 °F 82% 29.91 in 10.0 mi WNW 10.4 mph - N/A   Clear
8:53 AM 44.1 °F 38.1 °F 37.9 °F 79% 29.92 in 10.0 mi WNW 11.5 mph - N/A   Clear
10:53 AM 50.0 °F - 37.0 °F 61% 29.93 in 10.0 mi NW 17.3 mph 24.2 mph N/A   Scattered Clouds
11:02 AM 50.0 °F - 37.9 °F 63% 29.94 in 10.0 mi NW 15.0 mph 24.2 mph N/A   Mostly Cloudy
11:53 AM 50.0 °F - 37.9 °F 63% 29.94 in 10.0 mi WNW 16.1 mph - N/A   Overcast
12:28 PM 51.1 °F - 37.0 °F 59% 29.94 in 10.0 mi NW 17.3 mph 25.3 mph N/A   Overcast
12:53 PM 53.1 °F - 37.9 °F 57% 29.94 in 10.0 mi NW 17.3 mph 23.0 mph N/A   Mostly Cloudy
1:53 PM 55.9 °F - 39.0 °F 53% 29.92 in 10.0 mi WNW 17.3 mph 27.6 mph N/A   Mostly Cloudy
2:53 PM 55.0 °F - 39.0 °F 55% 29.91 in 10.0 mi NW 16.1 mph - N/A   Scattered Clouds
3:53 PM 54.0 °F - 37.9 °F 55% 29.92 in 10.0 mi NW 11.5 mph 21.9 mph N/A   Mostly Cloudy
4:53 PM 54.0 °F - 37.9 °F 55% 29.92 in 10.0 mi NW 12.7 mph - N/A   Overcast
5:53 PM 52.0 °F - 39.0 °F 61% 29.93 in 10.0 mi WNW 15.0 mph - N/A   Overcast
6:53 PM 51.1 °F - 39.9 °F 66% 29.95 in 10.0 mi WNW 10.4 mph - N/A   Overcast
7:53 PM 51.1 °F - 39.0 °F 63% 29.96 in 10.0 mi WNW 10.4 mph - N/A   Overcast
8:53 PM 50.0 °F - 39.9 °F 68% 29.98 in 10.0 mi WNW 9.2 mph - N/A   Overcast
9:53 PM 50.0 °F - 39.9 °F 68% 29.99 in 10.0 mi WNW 8.1 mph - N/A   Overcast
10:53 PM 48.0 °F - 39.9 °F 74% 30.00 in 10.0 mi WNW 6.9 mph - N/A   Overcast
11:53 PM 45.0 °F 41.2 °F 39.9 °F 82% 30.00 in 10.0 mi WNW 6.9 mph - N/A   Partly Cloudy